Regional Weather Roundup
Issued by NWS Newport/Morehead, NC

Current Version | Previous Version | Graphics & Text | Print | Product List | Glossary Off
Versions: 1 2 3 4 5 6 7 8 9 10 11 12 13 14 15 16 17 18 19 20 21 22 23 24 25 26 27 28 29 30 31 32 33 34 35 36 37 38 39 40 41 42 43 44 45 46 47 48 49 50

000
ASUS42 KMHX 230613
RWRMHX
WEATHER ROUNDUP FOR EASTERN NORTH CAROLINA
NATIONAL WEATHER SERVICE NEWPORT/MOREHEAD CITY NC
200 AM EDT SAT SEP 23 2017

NOTE: "FAIR" INDICATES FEW OR NO CLOUDS BELOW 12,000 FEET
WITH NO SIGNIFICANT WEATHER AND/OR OBSTRUCTIONS TO VISIBILITY

NCZ015>017-031-032-045>047-102-103-230700-
NORTH COAST

CITY           SKY/WX    TMP DP  RH WIND       PRES   REMARKS
EDENTON        CLEAR     67  66  94 CALM      30.02S
ELIZABETH CITY CLEAR     66  66 100 CALM      30.02R
KITTY HAWK     CLEAR     70  63  78 CALM      30.00S
MANTEO         CLEAR     65  65  98 CALM      30.02R FOG

$$

NCZ045>047-081-094-103-104-230700-
CENTRAL COAST

CITY           SKY/WX    TMP DP  RH WIND       PRES   REMARKS
FRISCO         MOCLDY    72  71  97 CALM      30.01S FOG

$$

NCZ095-097-098-100-101-230700-
SOUTHERN COAST

CITY           SKY/WX    TMP DP  RH WIND       PRES   REMARKS
BEAUFORT       CLEAR     75  72  90 SW3       30.01S
CEDAR ISLAND   NOT AVBL
JACKSONVILLE   CLEAR     69  69 100 CALM      30.01R
PINEY ISLAND     N/A    N/A N/A N/A W5        30.01R
WILMINGTON     CLEAR     69  68  96 CALM      30.01S


$$

NCZ011>013-027>030-043-044-078>080-089-090>093-098-230700-
COASTAL PLAIN

CITY           SKY/WX    TMP DP  RH WIND       PRES   REMARKS
AHOSKIE        CLEAR     62  62 100 CALM      30.03S
CLINTON        CLEAR     69  69 100 CALM      30.02S
ELIZABETHTOWN  NOT AVBL
GOLDSBORO      CLEAR     69  69 100 CALM      30.01R
GREENVILLE     FOG       68  66  94 CALM      30.03S VSB 1
HAVELOCK       CLEAR     71  70  96 CALM      30.02R
KENANSVILLE    CLEAR     66  64  94 CALM      30.02S FOG
KINSTON        CLEAR     66  65  96 CALM      30.02S
NEW BERN       CLEAR     70  69  97 S3        30.02S
RICHLANDS      CLEAR     67  66  97 CALM      30.02S FOG
ROCKY MOUNT    CLEAR     66  66 100 CALM      30.03S FOG
WASHINGTON     PTCLDY    67  66  96 CALM      30.02S
WHITEVILLE     CLEAR     68  67  97 CALM      30.01S

$$

AMZ130-135-150-152-154-156-158-170-250-252-270-ANZ085-086-088-633-658-670-230700-
MARINE OBSERVATIONS

STATION/POSITION TIME  TEMP    WIND        PRES    WAVE   SWELL
                       AIR SEA DIR/SP/G            HT/PER HT/PER
                 (UTC) (F)     (DEG/KT/KT) (MB)    (FT/S) (FT/S)
CHESAPEAKE LIGHT NOT AVBL
64 E VA BEACH    0550   70 69  250/  6/  8 1016.1    9/11  10/11
DUCK             0536   74 76  200/  5/  6 1015.8
2 E DUCK         0530      76                N/A     5/12   3/12
OREGON INLET     0536   73 79   90/  1/  2 1016.0
13E OREGON INLT  0548      75                N/A     7/11   7/11
HATTERAS CG      0536   76 79  220/  2/  2 1016.3
DIAMOND BUOY     0550   77 77  320/  2/  4 1016.2    6/12   7/12
CAPE LOOKOUT     0600   77     230/  4/  4 1015.9
BEAUFORT LAB     0536   77 77  220/  2/  3 1015.6
30 SE NEW RVR IN 0508   80     190/  4/  6 1015.9
30 SE NEW RVR IN NOT AVBL
27 SE WRIGHTSVLE 0508   80 80  140/  4/  8 1016.0
5 SE WRIGHTSVLE  NOT AVBL
225 S CAPE HAT   0550   78 79   60/ 12/ 14 1014.5   10/13  10/13
41 SE CHARLESTON 0550   81 82  100/ 10/ 14 1014.6    6/11   5/11

$$




USA.gov is the U.S. government's official web portal to all federal, state and local government web resources and services.